Weather in Lutsk

Ukraine / Volyn Oblast     50°44′50″N   25°19′31″E
temp.,
°C
wind,
m/s
gust,
m/s
humid.,
%
clouds,
%
prec.,
mm/h
press.,
hPa
HPBL,
m
19 september, sun
sun1900:00+9wnw4891100 0.1 1008669
03:00+7w4790100 0.2 1008573
06:00+7w5892100 0.1 1007607
09:00+7w5894100 0.6 1008591
12:00+6wnw6893100 0.9 1008776
15:00+6wnw6892100 1.4 1009964
18:00+6wnw5992100 0.6 10091005
21:00+6wnw61093100 1.6 1010722
20 september, mon
mon2000:00+6wnw61195100 0.6 1010584
03:00+6wnw61196100 0.6 1011552
06:00+5nw61197100 0.1 1012572
09:00+5nw61196100 0.3 1013530
12:00+6nw5995100 0.3 1014533
15:00+6nw5893100 0.4 1015695
18:00+6nw5992100 0.1 1016802
21:00+5wnw5989100 0.1 1018646
21 september, tue
tue2100:00+5wnw51089100 0.1 1018706
03:00+4wnw6990100 0.2 1019944
06:00+4nw61091100 0.1 1019790
09:00+5wnw5989100 0.2 1020760
12:00+6nw6984100 0.1 1021794
15:00+6nw6989100 0.2 1022925
18:00+6nw51084100 0.1 1022893
21:00+6nw5986100 0.1 1023816
22 september, wed
wed2200:00+6nw5982100 0.0 1023818
03:00+6nw51082100 0.0 1022468
06:00+5wnw4987100 0.0 1021349
09:00+6nw598393 0.0 1021417
12:00+10nnw686290 0.0 10201282
15:00+11nnw7849100 0.0 10191712
18:00+10nnw586096 0.0 10191018
21:00+7nne377598 0.1 1019269
23 september, thu
thu2300:00+5nw2287100 0.0 101926
03:00+6nw3781100 0.0 1018440
06:00+6nw2680100 0.0 1017733
09:00+7nw347694 0.0 1017331
12:00+9w2364100 0.0 1016622
15:00+12w5670100 0.1 1014872
18:00+10wsw5887100 0.1 1013471
21:00+9sw4991100 0.1 1013335